Satellite: NOAA-11 Catalog number: 19531 Epoch time: 11247.82553254 Element set: 0625 Inclination: 098.7486 deg RA of node: 333.7743 deg Eccentricity: 0.0010723 Arg of perigee: 325.4052 deg Mean anomaly: 034.6418 deg Mean motion: 14.14920975 rev/day Decay rate: -2.30e-06 rev/day^2 Epoch rev: 18401 Checksum: 287
Satellite: NOAA-12 Catalog number: 21263 Epoch time: 11247.95070371 Element set: 0132 Inclination: 098.7502 deg RA of node: 265.6514 deg Eccentricity: 0.0011865 Arg of perigee: 319.2274 deg Mean anomaly: 040.8018 deg Mean motion: 14.25735123 rev/day Decay rate: 3.2e-07 rev/day^2 Epoch rev: 05577 Checksum: 273
Satellite: MET-3/5 Catalog number: 21655 Epoch time: 11248.81243054 Element set: 201 Inclination: 082.5619 deg RA of node: 353.8044 deg Eccentricity: 0.0012556 Arg of perigee: 320.2989 deg Mean anomaly: 039.7261 deg Mean motion: 13.17029035 rev/day Decay rate: 5.1e-07 rev/day^2 Epoch rev: 96433 Checksum: 284
Satellite: MET-2/21 Catalog number: 22782 Epoch time: 11247.58350389 Element set: 0195 Inclination: 082.5445 deg RA of node: 259.8856 deg Eccentricity: 0.0021180 Arg of perigee: 233.8902 deg Mean anomaly: 126.0290 deg Mean motion: 13.83660443 rev/day Decay rate: -1.1e-07 rev/day^2 Epoch rev: 90953 Checksum: 305
Satellite: OKEAN-4 Catalog number: 23317 Epoch time: 11247.91083745 Element set: 0721 Inclination: 082.5405 deg RA of node: 298.6963 deg Eccentricity: 0.0020765 Arg of perigee: 212.2098 deg Mean anomaly: 147.7851 deg Mean motion: 14.83138576 rev/day Decay rate: 4.14e-06 rev/day^2 Epoch rev: 91236 Checksum: 312
Satellite: NOAA-14 Catalog number: 23455 Epoch time: 11247.93450126 Element set: 0624 Inclination: 098.8493 deg RA of node: 329.7644 deg Eccentricity: 0.0010236 Arg of perigee: 055.8686 deg Mean anomaly: 304.3453 deg Mean motion: 14.13829623 rev/day Decay rate: -1.6e-07 rev/day^2 Epoch rev: 86034 Checksum: 308
Satellite: NOAA-15 Catalog number: 25338 Epoch time: 11247.79279795 Element set: 0939 Inclination: 098.6629 deg RA of node: 232.8739 deg Eccentricity: 0.0009955 Arg of perigee: 216.9972 deg Mean anomaly: 143.0498 deg Mean motion: 14.24945990 rev/day Decay rate: 5.3e-07 rev/day^2 Epoch rev: 69206 Checksum: 374
Satellite: RESURS Catalog number: 25394 Epoch time: 11247.98538638 Element set: 0887 Inclination: 098.3032 deg RA of node: 246.6274 deg Eccentricity: 0.0002069 Arg of perigee: 027.9269 deg Mean anomaly: 332.2023 deg Mean motion: 14.24238313 rev/day Decay rate: -3.0e-08 rev/day^2 Epoch rev: 68366 Checksum: 309
Satellite: FENGYUN1 Catalog number: 25730 Epoch time: 11247.93451020 Element set: 0435 Inclination: 098.8220 deg RA of node: 207.3956 deg Eccentricity: 0.0024581 Arg of perigee: 088.9012 deg Mean anomaly: 271.4974 deg Mean motion: 14.08762287 rev/day Decay rate: 8.85e-06 rev/day^2 Epoch rev: 63429 Checksum: 311
Satellite: OKEAN-0 Catalog number: 25860 Epoch time: 11247.93550290 Element set: 0429 Inclination: 097.8933 deg RA of node: 212.2259 deg Eccentricity: 0.0001856 Arg of perigee: 077.6524 deg Mean anomaly: 282.4890 deg Mean motion: 14.73824339 rev/day Decay rate: 1.95e-06 rev/day^2 Epoch rev: 65240 Checksum: 316
Satellite: NOAA-16 Catalog number: 26536 Epoch time: 11247.75945935 Element set: 0422 Inclination: 099.1347 deg RA of node: 279.8986 deg Eccentricity: 0.0010806 Arg of perigee: 164.9358 deg Mean anomaly: 195.2121 deg Mean motion: 14.12640850 rev/day Decay rate: -1.35e-06 rev/day^2 Epoch rev: 56459 Checksum: 333
Satellite: NOAA-17 Catalog number: 27453 Epoch time: 11247.91027742 Element set: 0410 Inclination: 098.3723 deg RA of node: 283.9360 deg Eccentricity: 0.0010713 Arg of perigee: 276.5714 deg Mean anomaly: 083.4235 deg Mean motion: 14.24308301 rev/day Decay rate: 2.09e-06 rev/day^2 Epoch rev: 47800 Checksum: 279
Satellite: NOAA-18 Catalog number: 28654 Epoch time: 11247.91773968 Element set: 0888 Inclination: 099.0029 deg RA of node: 199.2879 deg Eccentricity: 0.0013565 Arg of perigee: 238.9864 deg Mean anomaly: 120.9986 deg Mean motion: 14.11509961 rev/day Decay rate: 4.46e-06 rev/day^2 Epoch rev: 32417 Checksum: 370
Satellite: NOAA-19 Catalog number: 33591 Epoch time: 11247.93268814 Element set: 0079 Inclination: 098.8309 deg RA of node: 186.7617 deg Eccentricity: 0.0015001 Arg of perigee: 109.2849 deg Mean anomaly: 250.9948 deg Mean motion: 14.11198389 rev/day Decay rate: -6.6e-07 rev/day^2 Epoch rev: 13263 Checksum: 337
/EX SB KEPS @ AMSAT $ORB11248.M Orbital Elements 11248.MISC
HR AMSAT ORBITAL ELEMENTS FOR MANNED AND MISCELLANEOUS SATELLITES FROM WA5QGD FORT WORTH,TX September 5, 2011 Send Subscribe/unsubscribe to KEPS at http://www.amsat.org/mailman/listinfo/keps BID: ORB11248.M TO ALL RADIO AMATEURS BT
Satellite: HUBBLE Catalog number: 20580 Epoch time: 11247.55236903 Element set: 830 Inclination: 028.4687 deg RA of node: 217.9701 deg Eccentricity: 0.0003201 Arg of perigee: 239.6109 deg Mean anomaly: 120.4135 deg Mean motion: 15.01478389 rev/day Decay rate: 8.21e-06 rev/day^2 Epoch rev: 97159 Checksum: 285
Satellite: ISS Catalog number: 25544 Epoch time: 11248.86966435 Element set: 16 Inclination: 051.6388 deg RA of node: 114.6529 deg Eccentricity: 0.0012349 Arg of perigee: 157.7341 deg Mean anomaly: 032.5882 deg Mean motion: 15.60816709 rev/day Decay rate: 4.921e-05 rev/day^2 Epoch rev: 73350 Checksum: 309
Satellite: CO-58 Catalog number: 28895 Epoch time: 11248.65374191 Element set: 966 Inclination: 097.9526 deg RA of node: 121.8821 deg Eccentricity: 0.0017485 Arg of perigee: 331.8403 deg Mean anomaly: 028.1848 deg Mean motion: 14.60160317 rev/day Decay rate: 2.47e-06 rev/day^2 Epoch rev: 31198 Checksum: 331
Satellite: FALCON Catalog number: 30776 Epoch time: 11248.25940880 Element set: 164 Inclination: 035.4334 deg RA of node: 220.0124 deg Eccentricity: 0.0001535 Arg of perigee: 034.0865 deg Mean anomaly: 325.9950 deg Mean motion: 15.04884571 rev/day Decay rate: 1.742e-05 rev/day^2 Epoch rev: 24711 Checksum: 272
Satellite: MAST Catalog number: 31126 Epoch time: 11248.63224927 Element set: 252 Inclination: 097.8911 deg RA of node: 271.3006 deg Eccentricity: 0.0093302 Arg of perigee: 280.6090 deg Mean anomaly: 078.4607 deg Mean motion: 14.53794332 rev/day Decay rate: 4.4e-07 rev/day^2 Epoch rev: 23277 Checksum: 281
Satellite: CAPE1 Catalog number: 31130 Epoch time: 11248.62421261 Element set: 265 Inclination: 097.8973 deg RA of node: 267.9443 deg Eccentricity: 0.0101328 Arg of perigee: 291.8564 deg Mean anomaly: 067.1876 deg Mean motion: 14.52453426 rev/day Decay rate: 2.10e-06 rev/day^2 Epoch rev: 23231 Checksum: 284
Satellite: COMPASS Catalog number: 32787 Epoch time: 11248.25915010 Element set: 83 Inclination: 097.8401 deg RA of node: 310.5600 deg Eccentricity: 0.0014584 Arg of perigee: 275.3986 deg Mean anomaly: 084.5585 deg Mean motion: 14.82571159 rev/day Decay rate: 7.03e-06 rev/day^2 Epoch rev: 18142 Checksum: 296
Satellite: AAUSAT2 Catalog number: 32788 Epoch time: 11247.74014143 Element set: 0076 Inclination: 097.8419 deg RA of node: 310.3021 deg Eccentricity: 0.0014062 Arg of perigee: 277.4197 deg Mean anomaly: 082.5416 deg Mean motion: 14.82766873 rev/day Decay rate: 9.85e-06 rev/day^2 Epoch rev: 18136 Checksum: 308
Satellite: DO-64 Catalog number: 32789 Epoch time: 11247.78957785 Element set: 0091 Inclination: 097.8505 deg RA of node: 311.5125 deg Eccentricity: 0.0014060 Arg of perigee: 275.0322 deg Mean anomaly: 084.9282 deg Mean motion: 14.83319364 rev/day Decay rate: 1.131e-05 rev/day^2 Epoch rev: 18138 Checksum: 315
Satellite: CO-66 Catalog number: 32791 Epoch time: 11247.61811732 Element set: 0078 Inclination: 097.8407 deg RA of node: 309.8455 deg Eccentricity: 0.0014760 Arg of perigee: 276.9432 deg Mean anomaly: 083.0135 deg Mean motion: 14.82240091 rev/day Decay rate: 1.056e-05 rev/day^2 Epoch rev: 18127 Checksum: 304
Satellite: RS-30 Catalog number: 32953 Epoch time: 11248.71678956 Element set: 59 Inclination: 082.5008 deg RA of node: 112.6689 deg Eccentricity: 0.0017925 Arg of perigee: 209.7318 deg Mean anomaly: 150.2743 deg Mean motion: 12.43014754 rev/day Decay rate: 1.0e-07 rev/day^2 Epoch rev: 14909 Checksum: 302
Satellite: TACSAT-3 Catalog number: 35001 Epoch time: 11248.52150992 Element set: 687 Inclination: 040.4499 deg RA of node: 044.0537 deg Eccentricity: 0.0018611 Arg of perigee: 087.3298 deg Mean anomaly: 272.9658 deg Mean motion: 15.51398083 rev/day Decay rate: 2.4066e-04 rev/day^2 Epoch rev: 12955 Checksum: 319
Satellite: PHARMSAT Catalog number: 35002 Epoch time: 11248.58503863 Element set: 640 Inclination: 040.4702 deg RA of node: 041.9908 deg Eccentricity: 0.0020488 Arg of perigee: 096.3230 deg Mean anomaly: 263.9957 deg Mean motion: 15.50534339 rev/day Decay rate: 1.7988e-04 rev/day^2 Epoch rev: 12958 Checksum: 311
Satellite: HAWKSAT1 Catalog number: 35003 Epoch time: 11248.66522968 Element set: 750 Inclination: 040.4495 deg RA of node: 356.0855 deg Eccentricity: 0.0013103 Arg of perigee: 105.9468 deg Mean anomaly: 254.2824 deg Mean motion: 15.80065159 rev/day Decay rate: 2.17442e-03 rev/day^2 Epoch rev: 13009 Checksum: 289
Satellite: CP6 Catalog number: 35004 Epoch time: 11247.64656856 Element set: 784 Inclination: 040.4403 deg RA of node: 342.9642 deg Eccentricity: 0.0002956 Arg of perigee: 038.0069 deg Mean anomaly: 322.2231 deg Mean motion: 16.41039951 rev/day Decay rate: 1.6152067e-01 rev/day^2 Epoch rev: 13013 Checksum: 285
Satellite: METEOR-M Catalog number: 35865 Epoch time: 11248.72637708 Element set: 701 Inclination: 098.6987 deg RA of node: 302.7798 deg Eccentricity: 0.0002614 Arg of perigee: 139.6482 deg Mean anomaly: 220.4841 deg Mean motion: 14.21841591 rev/day Decay rate: 1.77e-06 rev/day^2 Epoch rev: 10203 Checksum: 308
